CZUMCYYR

Guest
Details From CZUM - CHURCHILL FALLS
To CYYR - Goose Bay
Flight Number -
Tags generated
Created
Modified
Stats Distance 146 nm / 271 km
Max Altitude 4,600 ft / 1,402 m
Waypoints 4
Social Downloads 0
Likes 0
Share VATSIM

Download

Looking for another format? Having issues loading an existing format? Contact us
Advertisement - Login to hide

Notes

Basic altitude profile: - Ascent Rate: 2500ft/min - Ascent Speed: 250kts - Cruise Altitude: 35000ft - Cruise Speed: 420kts - Descent Rate: 1500ft/min - Descent Speed: 250kts Options: - Use NATs: yes - Use PACOTS: yes - Use low airways: yes - Use high airways: yes

Route

CZUM UM R29 YR CYYR

ID Type Via Altitude Latitude Longitude Leg Dist Tot Dist Heading (true) Name
O CZUM APT - 0 ft / 0 m 53.56262˚ -64.10594˚ - 0 nm - CHURCHILL FALLS
UM NDB - 1,700 ft / 518 m 53.59056˚ -64.23556˚ 4 nm 4 nm 290° / 290° CHURCHILL FALLS NDB
YR NDB R29 (AWY-LO) 4,600 ft / 1,402 m 53.33833˚ -60.36667˚ 139 nm 144 nm 95° / 98° GOOSE NDB
O CYYR APT - 0 ft / 0 m 53.31882˚ -60.42389˚ 2 nm 146 nm 240° / 240° Goose Bay

Altitude Profile

Advertisement - Login to hide

CZUM

Details ICAO CZUM (ZUM)
Name CHURCHILL FALLS
Region Canada
Timezone America/Goose_Bay (UTC-3.0)
Stats Elevation 1,442 ft / 440 m (AMSL)
Location 53.562625° -64.105935°
Runways 1
Magnetic Variation 20.692° W

METAR

CZUM 272300Z AUTO 07005KT 9SM CLR 08/M08 A3009 RMK SLP213

Decode

TAF

TAF CZUM 271938Z 2720/2808 33010KT P6SM FEW120 BKN240 BECMG 2721/2723 12006KT RMK FCST BASED ON AUTO OBS. NXT FCST BY 280200Z

Decode

Departure Runways

ID Width Length Bearing (true) Bearing (mag) Surface Threshold Offset Overrun Length
13 150 ft / 46 m 5,484 ft / 1,671 m 104.57° 125.26° Asphalt 0 ft / 0 m 0 ft / 0 m
31 150 ft / 46 m 5,484 ft / 1,671 m 284.59° 305.28° Asphalt 0 ft / 0 m 0 ft / 0 m

CYYR

Details ICAO CYYR (YYR)
Name Goose Bay
Region Canada
Timezone America/Goose_Bay (UTC-3.0)
Stats Elevation 160 ft / 49 m (AMSL)
Location 53.318820° -60.423890°
Runways 2
Magnetic Variation 20.866° W

METAR

CYYR 272300Z 05007KT 15SM BKN270 07/M06 A3017 RMK CI6 SLP219

Decode

TAF

TAF CYYR 272330Z 2800/2824 05008KT P6SM BKN270 BECMG 2800/2802 VRB03KT FM281500 23012G22KT P6SM SCT120 BKN180 BECMG 2815/2817 22018G28KT FM282000 22020G30KT P6SM -RA OVC060 RMK NXT FCST BY 280600Z

Decode

Destination Runways

ID Width Length Bearing (true) Bearing (mag) Surface Threshold Offset Overrun Length
08 209 ft / 64 m 11,055 ft / 3,369 m 54.70° 75.57° Asphalt 0 ft / 0 m 1,000 ft / 305 m
16 200 ft / 61 m 9,515 ft / 2,900 m 132.96° 153.83° Asphalt 0 ft / 0 m 0 ft / 0 m
26 209 ft / 64 m 11,055 ft / 3,369 m 234.73° 255.60° Asphalt 0 ft / 0 m 1,000 ft / 305 m
34 200 ft / 61 m 9,515 ft / 2,900 m 312.99° 333.86° Asphalt 0 ft / 0 m 500 ft / 152 m